CW7443 Weather Reports


time (UTC)temp
C
wind
direction
speed
KPH
gust
KPH
rain 1hr
cm
rain 24hr
cm
rain mn
cm
humidity
%
barometer
mb
20260502233830 6 49 0.0 4.8 0.00 0.00 0.00 65 1016.7
20260502233319 6 19 0.0 0.0 0.00 0.00 0.00 66 1016.7
20260502232823 6 19 0.0 0.0 0.00 0.00 0.00 66 1016.7
20260502232328 6 19 0.0 0.0 0.00 0.00 0.00 65 1016.7
20260502231812 6 21 0.0 1.6 0.00 0.00 0.00 64 1016.7
20260502231319 6 21 0.0 8.0 0.00 0.00 0.00 65 1016.7
20260502230824 6 20 0.0 8.0 0.00 0.00 0.00 65 1016.7
20260502230332 6 41 0.0 6.4 0.00 0.00 0.00 65 1016.7
20260502225836 6 41 1.6 6.4 0.00 0.00 0.00 62 1016.7
20260502225318 6 41 0.0 1.6 0.00 0.00 0.00 66 1016.7
20260502224828 6 42 0.0 4.8 0.00 0.00 0.00 62 1016.7
20260502224331 6 42 0.0 4.8 0.00 0.00 0.00 62 1016.7
20260502223859 7 49 0.0 4.8 0.00 0.00 0.00 62 1016.7
20260502223323 7 30 0.0 0.0 0.00 0.00 0.00 64 1016.7
20260502222825 7 30 0.0 4.8 0.00 0.00 0.00 63 1016.7
20260502222336 7 30 0.0 4.8 0.00 0.00 0.00 65 1016.7
20260502221821 7 32 0.0 3.2 0.00 0.00 0.00 64 1016.7
20260502221323 7 32 0.0 6.4 0.00 0.00 0.00 63 1016.7
20260502220829 7 32 0.0 6.4 0.00 0.00 0.00 61 1016.7
20260502220334 7 31 0.0 6.4 0.00 0.00 0.00 62 1016.7
20260502215818 7 50 0.0 6.4 0.00 0.00 0.00 65 1016.7
20260502215327 7 49 1.6 8.0 0.00 0.00 0.00 63 1016.7
20260502214837 7 29 1.6 8.0 0.00 0.00 0.00 62 1016.7
20260502214321 7 88 0.0 9.7 0.00 0.00 0.00 67 1016.6
20260502213826 7 24 0.0 9.7 0.00 0.00 0.00 64 1016.6
20260502213332 7 47 1.6 6.4 0.00 0.00 0.00 65 1016.6
20260502212835 7 51 0.0 6.4 0.00 0.00 0.00 65 1016.2
20260502212320 7 51 1.6 6.4 0.00 0.00 0.00 63 1016.2
20260502211826 7 79 0.0 4.8 0.00 0.00 0.00 64 1016.2
20260502211331 7 113 0.0 9.7 0.00 0.00 0.00 64 1016.2
20260502210857 7 53 1.6 9.7 0.00 0.00 0.00 61 1016.2
20260502210322 7 26 1.6 11.3 0.00 0.00 0.00 63 1016.2
20260502205830 7 55 0.0 8.0 0.00 0.00 0.00 62 1016.2
20260502205318 7 37 3.2 8.0 0.00 0.00 0.00 59 1016.2
20260502204828 7 5 1.6 6.4 0.00 0.00 0.00 59 1016.2
20260502204333 7 34 0.0 6.4 0.00 0.00 0.00 62 1016.2
20260502203858 7 5 3.2 6.4 0.00 0.00 0.00 59 1016.2
20260502203324 8 63 0.0 4.8 0.00 0.00 0.00 62 1016.2
20260502202828 8 69 0.0 6.4 0.00 0.00 0.00 61 1016.2
20260502202312 8 30 0.0 6.4 0.00 0.00 0.00 61 1016.2
20260502201823 8 32 0.0 6.4 0.00 0.00 0.00 62 1016.2
20260502201326 8 28 0.0 6.4 0.00 0.00 0.00 62 1016.3
20260502200831 8 30 1.6 6.4 0.00 0.00 0.00 60 1016.3
20260502200315 8 25 0.0 4.8 0.00 0.00 0.00 68 1016.3
20260502195825 7 25 0.0 4.8 0.00 0.00 0.00 63 1016.6
20260502195330 7 32 1.6 6.4 0.00 0.00 0.00 64 1016.6
20260502194813 7 32 0.0 6.4 0.00 0.00 0.00 66 1016.6
20260502194318 7 42 0.0 4.8 0.00 0.00 0.00 67 1016.7
20260502193827 7 42 0.0 9.7 0.00 0.00 0.00 70 1016.7
20260502193352 7 100 1.6 9.7 0.00 0.00 0.00 67 1016.7
20260502192834 7 47 1.6 9.7 0.00 0.00 0.00 65 1016.7
20260502192320 7 19 0.0 9.7 0.00 0.00 0.00 67 1016.7
20260502191827 7 41 0.0 6.4 0.00 0.00 0.00 67 1016.7
20260502191329 7 41 0.0 6.4 0.00 0.00 0.00 66 1016.7
20260502190837 7 27 0.0 6.4 0.00 0.00 0.00 63 1016.7
20260502190325 7 49 0.0 4.8 0.00 0.00 0.00 66 1016.7
20260502185825 7 49 0.0 4.8 0.00 0.00 0.00 64 1016.7
20260502185353 7 58 1.6 8.0 0.00 0.00 0.00 64 1016.7
20260502184817 7 34 1.6 8.0 0.00 0.00 0.00 60 1016.7
20260502184322 8 20 0.0 6.4 0.00 0.00 0.00 58 1016.7
20260502183847 8 21 1.6 8.0 0.00 0.00 0.00 59 1016.7
20260502183331 8 21 1.6 8.0 0.00 0.00 0.00 58 1016.7
20260502182835 8 43 0.0 8.0 0.00 0.00 0.00 59 1016.7
20260502182321 8 34 1.6 9.7 0.00 0.00 0.00 60 1016.7
20260502181827 8 28 0.0 9.7 0.00 0.00 0.00 59 1016.7
20260502181332 8 94 1.6 9.7 0.00 0.00 0.00 58 1016.7
20260502180838 8 44 1.6 9.7 0.00 0.00 0.00 57 1016.7
20260502180326 7 212 1.6 9.7 0.00 0.00 0.00 61 1016.7
20260502170318 7 169 1.6 8.0 0.00 0.00 0.00 62 1016.8
20260502164318 7 37 0.0 6.4 0.00 0.00 0.00 64 1017.1
20260502163824 7 34 1.6 6.4 0.00 0.00 0.00 62 1017.1
20260502163332 7 355 1.6 8.0 0.00 0.00 0.00 65 1017.1
20260502162835 7 71 0.0 8.0 0.00 0.00 0.00 64 1017.1
20260502162321 7 63 0.0 9.7 0.00 0.00 0.00 63 1017.1
20260502161826 7 63 0.0 9.7 0.00 0.00 0.00 62 1017.1
20260502161330 7 198 1.6 6.4 0.00 0.00 0.00 60 1017.1
20260502160819 7 55 0.0 8.0 0.00 0.00 0.00 63 1017.1
20260502160327 7 29 1.6 8.0 0.00 0.00 0.00 63 1017.1
20260502152341 7 287 0.0 9.7 0.00 0.00 0.00 69 1017.1
20260502151830 6 111 1.6 9.7 0.00 0.00 0.00 66 1017.1
20260502151331 7 188 3.2 9.7 0.00 0.00 0.00 63 1016.9
20260502150837 7 66 0.0 12.9 0.00 0.00 0.00 69 1016.9
20260502150323 6 188 1.6 12.9 0.00 0.00 0.00 65 1016.9
20260502130325 3 177 0.0 4.8 0.00 0.00 0.00 79 1016.7
20260502123317 2 33 1.6 6.4 0.00 0.00 0.00 82 1016.7
20260502122818 2 38 0.0 6.4 0.00 0.00 0.00 83 1016.3
20260502122323 2 38 1.6 6.4 0.00 0.00 0.00 84 1016.3
20260502121848 2 36 0.0 3.2 0.00 0.00 0.00 85 1016.3
20260502121330 2 36 0.0 9.7 0.00 0.00 0.00 85 1016.2
20260502120820 2 32 1.6 9.7 0.00 0.00 0.00 85 1016.2
20260502120326 2 34 0.0 1.6 0.00 0.00 0.00 87 1016.2
20260502115847 2 34 0.0 4.8 0.00 0.00 0.00 88 1016.2
20260502115331 1 33 0.0 4.8 0.00 0.00 0.00 88 1016.2
20260502114836 1 63 0.0 0.0 0.00 0.00 0.00 88 1016.2
20260502114322 1 63 0.0 3.2 0.00 0.00 0.00 89 1016.2
20260502113827 1 63 0.0 3.2 0.00 0.00 0.00 89 1016.2
20260502113319 1 24 0.0 0.0 0.00 0.00 0.00 90 1016.2
20260502112819 1 24 0.0 0.0 0.00 0.00 0.00 90 1016.4
20260502112327 1 24 0.0 0.0 0.00 0.00 0.00 90 1016.4
20260502111816 1 24 0.0 0.0 0.00 0.00 0.00 90 1016.4
20260502111341 1 24 0.0 0.0 0.00 0.00 0.00 91 1016.2
20260502110847 1 24 0.0 0.0 0.00 0.00 0.00 91 1016.2
20260502110350 1 24 0.0 0.0 0.00 0.00 0.00 92 1016.2
20260502105837 1 24 0.0 0.0 0.00 0.00 0.00 92 1016.2
20260502105341 1 24 0.0 0.0 0.00 0.00 0.00 92 1016.2
20260502104825 1 24 0.0 0.0 0.00 0.00 0.00 93 1016.2
20260502104350 1 24 0.0 0.0 0.00 0.00 0.00 93 1016.2
20260502103833 1 24 0.0 0.0 0.00 0.00 0.00 93 1016.2
20260502103317 1 24 0.0 0.0 0.00 0.00 0.00 93 1016.2
20260502102820 1 24 0.0 0.0 0.00 0.00 0.00 94 1016.2
20260502102325 1 24 0.0 0.0 0.00 0.00 0.00 94 1016.2
20260502101830 1 24 0.0 0.0 0.00 0.00 0.00 94 1016.2
20260502101335 1 24 0.0 0.0 0.00 0.00 0.00 94 1016.2
20260502100821 1 24 0.0 0.0 0.00 0.00 0.00 95 1016.2
20260502100347 1 24 0.0 0.0 0.00 0.00 0.00 95 1016.2
20260502091323 1 24 0.0 0.0 0.00 0.00 0.00 96 1016.2
20260502090829 1 24 0.0 0.0 0.00 0.00 0.00 96 1016.2
20260502090325 1 24 0.0 0.0 0.00 0.00 0.00 96 1016.2
20260502071333 2 24 0.0 0.0 0.00 0.00 0.00 99 1016.1
20260502070821 3 24 0.0 0.0 0.00 0.00 0.00 99 1016.1
20260502070330 3 24 0.0 0.0 0.00 0.00 0.00 99 1016.1
20260502065815 3 24 0.0 0.0 0.00 0.00 0.00 99 1016.2
20260502065323 3 24 0.0 0.0 0.00 0.00 0.00 99 1016.2
20260502064849 3 24 0.0 0.0 0.00 0.00 0.00 99 1016.2
20260502064354 3 24 0.0 0.0 0.00 0.00 0.00 99 1016.2
20260502063840 3 24 0.0 0.0 0.00 0.00 0.00 99 1016.2
20260502063330 3 24 0.0 0.0 0.00 0.00 0.00 98 1016.2
20260502062832 3 24 0.0 0.0 0.00 0.00 0.00 98 1016.2
20260502062315 3 24 0.0 0.0 0.00 0.00 0.00 99 1016.2
20260502061823 3 24 0.0 0.0 0.00 0.00 0.00 99 1016.2
20260502061325 3 24 0.0 0.0 0.00 0.00 0.00 98 1016.3
20260502060831 3 24 0.0 0.0 0.00 0.00 0.00 98 1016.3
20260502060325 3 23 0.0 0.0 0.00 0.00 0.00 98 1016.3
20260502055828 3 24 0.0 0.0 0.00 0.00 0.00 98 1016.5
20260502055333 3 23 0.0 0.0 0.00 0.00 0.00 98 1016.5
20260502054819 4 24 0.0 0.0 0.00 0.00 0.00 98 1016.5
20260502054322 4 24 0.0 0.0 0.00 0.00 0.00 98 1016.6
20260502053848 4 24 0.0 0.0 0.00 0.00 0.00 98 1016.6
20260502053335 4 24 0.0 0.0 0.00 0.00 0.00 98 1016.6
20260502052838 3 23 0.0 0.0 0.00 0.00 0.00 98 1016.5
20260502052323 3 23 0.0 0.0 0.00 0.00 0.00 98 1016.5
20260502051828 3 24 0.0 0.0 0.00 0.00 0.00 98 1016.5
20260502051329 3 24 0.0 0.0 0.00 0.00 0.00 97 1016.6
20260502050834 3 24 0.0 0.0 0.00 0.00 0.00 97 1016.6
20260502050339 3 23 0.0 0.0 0.00 0.00 0.00 97 1016.6
20260502045821 3 24 0.0 0.0 0.00 0.00 0.00 97 1016.4
20260502045332 3 24 0.0 0.0 0.00 0.00 0.00 97 1016.4
20260502044817 3 24 0.0 0.0 0.00 0.00 0.00 97 1016.4
20260502044339 3 23 0.0 0.0 0.00 0.00 0.00 97 1016.5
20260502043824 3 24 0.0 0.0 0.00 0.00 0.00 97 1016.5
20260502043353 3 24 0.0 0.0 0.00 0.00 0.00 96 1016.5
20260502042854 3 24 0.0 0.0 0.00 0.00 0.00 96 1016.5
20260502042319 3 24 0.0 0.0 0.00 0.00 0.00 96 1016.5
20260502041824 3 24 0.0 0.0 0.00 0.00 0.00 96 1016.5
20260502041325 3 24 0.0 0.0 0.00 0.00 0.00 96 1016.5
20260502040833 4 24 0.0 0.0 0.00 0.00 0.00 95 1016.5
20260502040319 4 24 0.0 0.0 0.00 0.00 0.00 95 1016.5
20260502035820 4 24 0.0 0.0 0.00 0.00 0.00 94 1016.5
20260502035325 4 24 0.0 0.0 0.00 0.00 0.00 93 1016.5
20260502034815 4 24 0.0 0.0 0.00 0.00 0.00 92 1016.5
20260502034322 4 24 0.0 0.0 0.00 0.00 0.00 92 1016.6
20260502033826 5 24 0.0 0.0 0.00 0.00 0.00 92 1016.6
20260502033331 5 23 0.0 0.0 0.00 0.00 0.00 92 1016.6
20260502032833 5 24 0.0 0.0 0.00 0.00 0.00 91 1016.7
20260502032337 5 24 0.0 0.0 0.00 0.00 0.00 91 1016.7
20260502031820 5 23 0.0 0.0 0.00 0.00 0.00 91 1016.7
20260502031343 5 23 0.0 0.0 0.00 0.00 0.00 91 1016.7
20260502030830 5 24 0.0 0.0 0.00 0.00 0.00 91 1016.7
20260502030334 5 24 0.0 0.0 0.00 0.00 0.00 92 1016.7
20260502025820 5 24 0.0 0.0 0.00 0.00 0.00 92 1016.7
20260502025329 5 24 0.0 0.0 0.00 0.00 0.00 92 1016.7
20260502024818 5 23 0.0 0.0 0.00 0.00 0.00 92 1016.7
20260502024321 5 24 0.0 0.0 0.00 0.00 0.00 92 1016.5
20260502023847 5 23 0.0 0.0 0.00 0.00 0.00 91 1016.5
20260502023335 5 24 0.0 0.0 0.00 0.00 0.00 91 1016.5
20260502022840 6 23 0.0 0.0 0.00 0.00 0.00 91 1016.2
20260502022324 6 24 0.0 0.0 0.00 0.00 0.00 90 1016.2
20260502021835 6 24 0.0 0.0 0.00 0.00 0.00 89 1016.2
20260502021338 6 24 0.0 0.0 0.00 0.00 0.00 89 1016.2
20260502020822 6 24 0.0 0.0 0.00 0.00 0.00 89 1016.2
20260502020348 6 23 0.0 0.0 0.00 0.00 0.00 88 1016.2
20260502015853 6 24 0.0 0.0 0.00 0.00 0.00 88 1016.0
20260502015337 6 24 0.0 0.0 0.00 0.00 0.00 87 1016.0
20260502014820 6 24 0.0 0.0 0.00 0.00 0.00 86 1016.0
20260502014326 6 23 0.0 0.0 0.00 0.00 0.00 85 1015.8
20260502013832 6 23 0.0 0.0 0.00 0.00 0.00 85 1015.8
20260502013336 6 23 0.0 0.0 0.00 0.00 0.00 84 1015.8
20260502012821 6 24 0.0 0.0 0.00 0.00 0.00 83 1015.5
20260502012326 6 24 0.0 0.0 0.00 0.00 0.00 83 1015.5
20260502011830 6 24 0.0 4.8 0.00 0.00 0.00 82 1015.5
20260502011333 6 24 0.0 6.4 0.00 0.00 0.00 81 1015.2
20260502010816 6 38 0.0 6.4 0.00 0.00 0.00 81 1015.2
20260502010344 6 45 1.6 4.8 0.00 0.00 0.00 82 1015.2
20260502005828 6 46 0.0 0.0 0.00 0.00 0.00 84 1015.3
20260502005353 6 46 0.0 0.0 0.00 0.00 0.00 83 1015.3
20260502004821 7 46 0.0 0.0 0.00 0.00 0.00 83 1015.3
20260502004322 7 46 0.0 0.0 0.00 0.00 0.00 84 1015.2
20260502003831 7 46 0.0 0.0 0.00 0.00 0.00 84 1015.2
20260502003337 7 46 0.0 0.0 0.00 0.00 0.00 84 1015.2
20260502002838 7 46 0.0 0.0 0.00 0.00 0.00 83 1015.1
20260502002323 7 46 0.0 0.0 0.00 0.00 0.00 83 1015.1
20260502001829 7 46 0.0 0.0 0.00 0.00 0.00 82 1015.1
20260502001331 7 46 0.0 0.0 0.00 0.00 0.00 82 1014.9
20260502000836 7 46 0.0 0.0 0.00 0.00 0.00 81 1014.9
20260502000340 7 46 0.0 0.0 0.00 0.00 0.00 80 1014.9
20260501235821 7 46 0.0 0.0 0.00 0.00 0.00 80 1014.5
20260501235329 7 46 0.0 4.8 0.00 0.00 0.00 79 1014.5
20260501234835 7 46 0.0 4.8 0.00 0.00 0.00 79 1014.5
20260501234338 7 47 0.0 0.0 0.00 0.00 0.00 79 1014.4